Location: Hylvaty SDH
(49.9612°N, 16.4057°E)
Time: 20:18:05
(UTC+02:00)

Transit 4A - Pass Details

Date: 10 August 2020
Orbit: 862 x 982 km, 66.8° (Epoch: 28 September)

Event Time Altitude Azimuth Distance (km) Brightness Sun altitude
Rises 10:59:01 0° 224° (SW) 3,493 10.9 47.7°
Reaches altitude 10° 11:01:29 10° 227° (SW) 2,572 10.3 47.9°
Maximum altitude 11:07:27 68° 310° (NW) 989 8.6 48.6°
Drops below altitude 10° 11:13:39 10° 34° (NE) 2,671 10.3 49.3°
Sets 11:16:16 0° 37° (NE) 3,636 10.9 49.6°
